Location: Camps Bay
(33.9517°S, 18.3844°E)
Time: 09:24:39
(UTC+00:00)

Cosmos 1378 Rocket - Pass Details

Date: 18 January 2020
Orbit: 601 x 628 km, 82.5° (Epoch: 16 February)

Event Time Altitude Azimuth Distance (km) Brightness Sun altitude
Exits shadow 01:21:55 74° 153° (SSE) 637 3.6 -25.3°
Drops below altitude 10° 01:25:56 10° 172° (S) 1,973 6.9 -24.8°
Sets 01:28:10 0° 172° (S) 2,885 7.9 -24.5°
